Regional Weather Roundup
Issued by NWS

Home | Current Version | Previous Version | Graphics & Text | Print | Product List | Glossary On
Versions: 1 2 3 4 5 6 7 8 9 10 11 12 13 14 15 16 17 18 19 20 21 22 23 24 25 26 27 28 29 30 31 32 33 34 35 36 37 38 39 40 41 42 43 44 45 46 47 48 49 50
000
ASUS44 KMEG 241610
RWRTN
TENNESSEE HOURLY STATE WEATHER ROUNDUP
NATIONAL WEATHER SERVICE MEMPHIS TN
1100 AM CDT WED AUG 24 2016

TNZ002-004-019-021-049-052-054-088>092-241700-
WEST TENNESSEE

CITY           SKY/WX    TMP DP  RH WIND       PRES   REMARKS
MEMPHIS INTL   MOSUNNY   91  75  59 SW7       30.18S HX 101
NWS MEMPHIS      N/A     89 N/A N/A MISG        N/A
JACKSON        MOSUNNY   87  76  69 SW9       30.19S HX  97
DYERSBURG      MOSUNNY   88  75  66 MISG      30.16  HX  97
UNION CITY     SUNNY     88  77  70 S7        30.15S HX 100
PARIS          SUNNY     82  75  78 S8        30.19S
$$

TNZ008-025-027-028-033-062-065-066-241700-
NORTH MIDDLE TENNESSEE

CITY           SKY/WX    TMP DP  RH WIND       PRES   REMARKS
NASHVILLE      CLOUDY    86  71  60 S9        30.22F HX  91
CLARKSVILLE    CLOUDY    85  74  69 SW10      30.19S HX  92
SMYRNA         SUNNY     84  72  65 MISG      30.24S
COOKEVILLE     SUNNY     88  75  66 S6        30.25F HX  97
CROSSVILLE     CLOUDY    80  69  69 VRB5      30.32S
$$

TNZ061-075-076-078-094-096-097-241700-
SOUTH MIDDLE TENNESSEE

CITY           SKY/WX    TMP DP  RH WIND       PRES   REMARKS
FAYETTEVILLE   SUNNY     84  72  65 S6        30.26S
TULLAHOMA      SUNNY     86  68  54 S5        30.27F
WINCHESTER     MOSUNNY   88  73  62 S6        30.26F HX  96
MCMINNVILLE    SUNNY     86  73  66 SW5       30.27S HX  93
COLUMBIA       SUNNY     88  81  79 SW6       30.22S HX 105
SHELBYVILLE    SUNNY     88  73  62 VRB3      30.25F HX  96
$$

TNZ017-018-042-046-047-241700-
NORTHEAST TENNESSEE

CITY           SKY/WX    TMP DP  RH WIND       PRES   REMARKS
TRI CITIES     CLOUDY    77  65  66 CALM      30.32S
ELIZABETHTON   CLOUDY    75  66  73 E5        30.32S
$$

TNZ012-013-036-069-073-074-241700-
CENTRAL EAST TENNESSEE

CITY           SKY/WX    TMP DP  RH WIND       PRES   REMARKS
KNOXVILLE      CLOUDY    80  68  66 VRB5      30.28R
OAK RIDGE      CLOUDY    80  67  64 CALM      30.29S
GATLINBURG     PTSUNNY   81  66  61 VRB3      30.28S
MORRISTOWN     CLOUDY    81  68  65 NW6       30.30R
$$

TNZ083-085-099-241700-
SOUTHEAST TENNESSEE

CITY           SKY/WX    TMP DP  RH WIND       PRES   REMARKS
CHATTANOOGA    PTSUNNY   83  71  67 S7        30.27F
$$

SKY/WX REPORTED AS FAIR MEANS FEW OR NO CLOUDS BELOW
12 THOUSAND FEET.





USA.gov is the U.S. government's official web portal to all federal, state and local government web resources and services.